Location: Central Falls
(41.8900°N, 71.3929°W)
Time: 10:54:06
(UTC+00:00)

A-11 Canister half - Pass Details

Date: 11 December 2023
Orbit: 1526 x 1682 km, 47.3° (Epoch: 20 February)

Event Time Altitude Azimuth Distance (km) Brightness Sun altitude
Rises 00:15:55 0° 264° (W) 4,925 12.8 -32.9°
Reaches altitude 10° 00:19:07 10° 267° (W) 3,942 12.0 -33.5°
Maximum altitude 00:29:15 68° 350° (N) 1,785 9.2 -35.4°
Enters shadow 00:30:19 64° 22° (NNE) 1,822 9.1 -35.6°
Drops below altitude 10° 00:39:17 10° 73° (ENE) 3,899 - -37.2°
Sets 00:42:26 0° 77° (ENE) 4,869 - -37.8°
